EW5807 Weather Reports


Display with metric or nautical units.
time (UTC)temp
F
wind
direction
speed
MPH
gust
MPH
rain 1hr
in
rain 24hr
in
rain mn
in
humidity
%
barometer
mb
20260903073057 54 139 0.0 0.0 0.00 0.00 0.00 32 1009.4
20260903071549 54 140 0.0 0.0 0.00 0.00 0.00 32 1009.2
20260903070049 55 140 0.0 0.0 0.00 0.00 0.00 31 1009.1
20260903064517 55 140 0.0 1.0 0.00 0.00 0.00 31 1009.1
20260903063019 55 142 0.0 2.0 0.00 0.00 0.00 30 1009.2
20260903061559 55 139 0.0 1.0 0.00 0.00 0.00 30 1009.2
20260903060043 55 119 0.0 1.0 0.00 0.00 0.00 30 1009.3
20260903054541 56 162 0.0 0.0 0.00 0.00 0.00 29 1009.4
20260903053040 56 139 0.0 2.0 0.00 0.00 0.00 28 1009.6
20260903051539 56 145 0.0 2.0 0.00 0.00 0.00 28 1009.7
20260903050039 56 139 0.0 1.0 0.00 0.00 0.00 28 1009.9
20260903044531 57 203 0.0 0.0 0.00 0.00 0.00 27 1009.8
20260903043032 58 203 0.0 0.0 0.00 0.00 0.00 26 1009.7
20260903041532 58 273 0.0 1.0 0.00 0.00 0.00 25 1009.6
20260903040022 59 139 0.0 0.0 0.00 0.00 0.00 25 1009.1
20260903034621 59 200 0.0 0.0 0.00 0.00 0.00 25 1009.0
20260903033049 60 273 0.0 0.0 0.00 0.00 0.00 25 1008.9
20260903031545 60 274 0.0 1.0 0.00 0.00 0.00 24 1008.7
20260903030042 60 323 0.0 3.0 0.00 0.00 0.00 25 1008.7
20260903024542 61 234 0.0 1.0 0.00 0.00 0.00 24 1008.4
20260903023038 61 291 0.0 1.0 0.00 0.00 0.00 23 1008.3
20260903021538 62 295 0.0 1.0 0.00 0.00 0.00 23 1008.1
20260903020038 63 310 0.0 5.0 0.00 0.00 0.00 22 1008.0
20260903014528 64 301 1.0 7.0 0.00 0.00 0.00 21 1008.0
20260903013021 65 306 4.0 8.0 0.00 0.00 0.00 20 1007.9
20260903011519 66 293 5.0 9.0 0.00 0.00 0.00 18 1007.8
20260903010014 66 285 4.0 9.0 0.00 0.00 0.00 18 1007.6
20260903004511 67 276 3.0 7.0 0.00 0.00 0.00 18 1007.3
20260903003008 67 292 3.0 9.0 0.00 0.00 0.00 17 1007.3
20260903001506 68 322 5.0 9.0 0.00 0.00 0.00 17 1007.2
20260903000002 68 290 8.0 12.0 0.00 0.00 0.00 17 1007.3
20260902234609 69 292 6.0 12.0 0.00 0.00 0.00 17 1007.3
20260902233059 70 282 3.0 12.0 0.00 0.00 0.00 16 1007.2
20260902231559 71 283 5.0 13.0 0.00 0.00 0.00 15 1007.2
20260902230100 72 284 9.0 12.0 0.00 0.00 0.00 15 1007.1
20260902224601 71 293 3.0 9.0 0.00 0.00 0.00 15 1007.4
20260902223055 70 282 3.0 11.0 0.00 0.00 0.00 15 1007.5
20260902221554 70 282 5.0 12.0 0.00 0.00 0.00 16 1007.7
20260902220057 70 266 4.0 12.0 0.00 0.00 0.00 16 1007.7
20260902214555 71 278 5.0 12.0 0.00 0.00 0.00 15 1007.7
20260902213051 71 220 9.0 18.0 0.00 0.00 0.00 15 1007.8
20260902211550 70 272 8.0 14.0 0.00 0.00 0.00 16 1008.0
20260902210048 69 227 5.0 10.0 0.00 0.00 0.00 16 1008.0
20260902204551 69 234 4.0 12.0 0.00 0.00 0.00 17 1008.0
20260902203048 70 224 5.0 13.0 0.00 0.00 0.00 17 1008.0
20260902201554 69 256 7.0 15.0 0.00 0.00 0.00 16 1008.0
20260902200046 69 302 4.0 11.0 0.00 0.00 0.00 17 1008.0
20260902194551 69 282 1.0 10.0 0.00 0.00 0.00 16 1008.1
20260902193044 69 176 3.0 8.0 0.00 0.00 0.00 17 1008.2
20260902191542 69 247 4.0 9.0 0.00 0.00 0.00 17 1008.3
20260902190042 67 304 3.0 8.0 0.00 0.00 0.00 18 1008.5
20260902184542 66 311 4.0 7.0 0.00 0.00 0.00 19 1008.6
20260902183038 65 310 2.0 7.0 0.00 0.00 0.00 19 1008.7
20260902181540 65 229 5.0 12.0 0.00 0.00 0.00 19 1008.8
20260902180007 65 264 3.0 9.0 0.00 0.00 0.00 19 1008.8
20260902174510 64 248 2.0 11.0 0.00 0.00 0.00 19 1008.8
20260902173007 64 255 4.0 9.0 0.00 0.00 0.00 20 1008.8
20260902171504 64 300 2.0 8.0 0.00 0.00 0.00 19 1008.9
20260902170002 63 270 3.0 7.0 0.00 0.00 0.00 19 1008.9
20260902164501 63 222 4.0 8.0 0.00 0.00 0.00 20 1008.7
20260902163100 62 223 3.0 6.0 0.00 0.00 0.00 21 1008.7
20260902161559 60 218 0.0 4.0 0.00 0.00 0.00 22 1008.5
20260902160108 60 198 1.0 4.0 0.00 0.00 0.00 22 1008.5
20260902154602 59 228 1.0 4.0 0.00 0.00 0.00 22 1008.6
20260902153054 58 292 1.0 4.0 0.00 0.00 0.00 23 1008.5
20260902151558 57 311 0.0 4.0 0.00 0.00 0.00 25 1008.4
20260902150051 55 312 1.0 4.0 0.00 0.00 0.00 26 1008.3
20260902144550 53 231 0.0 0.0 0.00 0.00 0.00 27 1008.2
20260902143049 54 229 0.0 1.0 0.00 0.00 0.00 26 1008.1
20260902141548 52 210 0.0 1.0 0.00 0.00 0.00 29 1008.3
20260902140048 52 138 0.0 3.0 0.00 0.00 0.00 28 1008.0
20260902134547 51 265 0.0 1.0 0.00 0.00 0.00 28 1008.1
20260902133047 50 140 0.0 2.0 0.00 0.00 0.00 29 1008.1
20260902131543 49 156 0.0 4.0 0.00 0.00 0.00 30 1007.9
20260902130039 48 139 2.0 4.0 0.00 0.00 0.00 30 1007.7
20260902124539 48 152 0.0 2.0 0.00 0.00 0.00 30 1007.6
20260902123036 49 200 0.0 1.0 0.00 0.00 0.00 30 1007.2
20260902121532 50 212 0.0 4.0 0.00 0.00 0.00 29 1007.0
20260902120031 48 203 0.0 2.0 0.00 0.00 0.00 30 1006.6
20260902114537 49 150 0.0 2.0 0.00 0.00 0.00 30 1006.4
20260902113025 49 145 0.0 3.0 0.00 0.00 0.00 30 1006.3
20260902111552 48 207 0.0 1.0 0.00 0.00 0.00 30 1006.3
20260902110049 49 176 0.0 1.0 0.00 0.00 0.00 29 1006.1
20260902104607 51 152 0.0 3.0 0.00 0.00 0.00 29 1005.7
20260902103039 53 230 1.0 3.0 0.00 0.00 0.00 25 1005.6
20260902101536 54 221 0.0 6.0 0.00 0.00 0.00 24 1005.4
20260902100038 54 192 0.0 5.0 0.00 0.00 0.00 24 1005.2
20260902094529 55 195 0.0 3.0 0.00 0.00 0.00 26 1005.0
20260902093030 57 181 1.0 7.0 0.00 0.00 0.00 23 1005.2
20260902091524 58 229 7.0 11.0 0.00 0.00 0.00 21 1005.2
20260902090020 58 224 3.0 10.0 0.00 0.00 0.00 22 1005.0
20260902084552 59 186 8.0 16.0 0.00 0.00 0.00 21 1004.5
20260902083059 61 219 8.0 12.0 0.00 0.00 0.00 19 1004.4
20260902081603 63 213 6.0 11.0 0.00 0.00 0.00 18 1004.2
20260902080050 64 198 5.0 13.0 0.00 0.00 0.00 17 1004.2